Location: Wallasey
(53.4265°N, 3.0662°W)
Time: 21:05:21
(UTC+01:00)

NOAA 18 - Pass Details

Date: 22 September 2019
Orbit: 841 x 861 km, 99.1° (Epoch: 17 October)

Event Time Altitude Azimuth Distance (km) Brightness Sun altitude
Exits shadow 21:13:15 18° 164° (SSE) 1,982 6.7 -18.3°
Maximum altitude 21:17:28 86° 251° (WSW) 871 5.2 -18.8°
Drops below altitude 10° 21:23:05 10° 343° (NNW) 2,513 8.3 -19.6°
Sets 21:25:29 0° 344° (NNW) 3,454 9.1 -19.9°
